map of PLL home
Great Circle Mapper logo
PLL - Airport
Location
City:  Manaus, Amazonas, Brazil
Name:Ponta Pelada
ICAO / IATA:SBMN / PLL

Details
Type:Airport (Aerodrome, Airfield)
Use:Military
Latitude:308'46"S (-3.146041)
Longitude:5959'11"W (-59.986299)
Datum:WGS 1984
Elevation:267 ft (81 m)
Runways:1
Longest:7605 × 148 ft (2318 × 45 m), paved

Time
Time Zone:UTC-4
Local Time:

Weather
METAR:SBMN 010500Z 06003KT CAVOK 27/22 Q1011
TAF:SBMN 301600Z 3018/0118 14005KT 9999 SCT020 TN26/0107Z TX34/0117Z
BECMG 3019/3021 16003KT SCT020 FEW025TCU
BECMG 3022/3024 03003KT CAVOK
BECMG 0102/0104 09003KT
BECMG 0111/0113 12008KT
BECMG 0115/0117 16005KT 9999 SCT020
RMK PEN

Related Locations
Nearby:
Farthest:SMM: 12307 mi / 19806 km
Semporna, Sabah, MY

Find:

   beyond  
but within

Other Information
Maps:
NOTAMs:
Links:
Sources:

  
flag of Brazil
flag of Amazonas
flag of Manaus
  

Sectional Chart

Flight Planning
at skyvector.com

Satellite Image

Google Maps Satellite View

 

Copyright © 2004-2014 Karl L. Swartz. All rights reserved.
The Great Circle Mapper name and logo are trademarks of the Great Circle Mapper.
All other trademarks mentioned herein belong to their respective owners.
Please see credits for attibutions and further copyright information.

  Follow gcmap on Facebook Follow gcmap on Twitter

hCard Microformat

Geo Microformat